User: anonymous   Login
Location: Natural Bridges National Monument
(37.6093°N, 109.9767°W)
Time: 11:34:59
(UTC-06:00)
Language:

Cosmos 1727 Rocket - Orbit

View from above orbital plane
View from above orbital plane
View from above satellite
View from above satellite

Ground track
Ground track

The orbit data is extracted from the following two-line orbital elements,

1 16511U 86008B   15187.54850221  .00000003  00000-0 -12643-4 0  9999
2 16511 082.9430 027.6613 0025516 109.6277 305.2397 13.75800845478423
Epoch (UTC): 06 July 2015 13:09:50
Eccentricity: 0.0025516
inclination: 82.9430°
perigee height: 960 km
apogee height: 997 km
right ascension of ascending node: 27.6613°
argument of perigee: 109.6277°
revolutions per day: 13.75800845
mean anomaly at epoch: 305.2397°
orbit number at epoch: 47842

The dashed part of the orbit path shows where the satellite is in the earth's shadow,  

DLR